Showing default

PERUSAT 1, 41770

Orbit data source: Space-Track

PERUSAT 1, 41770 is a payload satellite owned by MOD Peru (PE) in SSO that was launched on Fri, 16 Sep 2016 UTC via a VEGA launch vehicle from the French Guiana (FRGUI). Payload-class satellites include a variety of spacecraft equipped with specific instruments for various scientific and technological missions. These include communications satellites like Starlink; space stations such as the ISS; scientific satellites like the Hubble; Earth observation satellites from companies like Planet Labs, Umbra, and HawkEye 360; GPS; miniature CubeSats for education and research; and military/defense satellites.

Loading next visibility...
Identifier
41770, 2016-058A
Orbit
SSO
Country
Flag of PEPE / PER
Related business
Manufacturer
Airbus/Toulouse
Mission
Operational Defense Imaging
Bus & Motor
ASTROBUS-S, Unknown motor
Mass
430 kg wet, ~400 kg dry
Launch date (UTC)
2016-09-16 (10 years ago)
Launch vehicle
VEGA
Launch site
French Guiana (FRGUI)
Object type
Payload
Rocket body
Debris
Shape & HBR
Hex Cyl + 3 Pan, 2.6 m
Radar Cross Section
3.025 m², Large (>1 m²)

Expand to show TLE details & history
Last TLE update: 5 hours ago

TLE from 5 hours ago
0 PERUSAT 1
1 41770U 16058A   26248.29503826 -.00000034  00000-0  26213-5 0  9993
2 41770  98.1958 320.8850 0001465  85.8594 274.2772 14.58553456530771
Epoch: 2026-09-05T07:04Z
TLE epoch observation values (Epoch: 2026-09-05T07:04:51.305Z)
Latitude
-0.00011°
Longitude
-129.73532°
Altitude
700.755 km
Speed
7.506 km/s
True Right ascension
21h 23m 32s
True Declination
0° 00' 00"
Sunlit
Object was in full shadow at epoch
Visualization orbit readout
Latitude
Unknown
Longitude
Unknown
Altitude
Unknown
Speed
Unknown
Apparent Right ascension
Unknown
Apparent Declination
Unknown
Sunlit
N/A
Visualization observer readout
Local Sidereal Time
04:20:26
Azimuth
Unknown
Elevation
Unknown
Doppler factor
Unknown
Orbital elements
Apogee altitude
695.968 km
Perigee altitude
693.895 km
Semi-major axis
7,073.069 km
Eccentricity
0.00015
Inclination
98.1958°
RAAN
320.885°
Arg. of periapsis
85.8594°
True anomaly
274.26046°
Mean anomaly
274.2772°
Eccentric anomaly
274.26883°
Mean motion
3.64864 °/min
Orbital period
98.67 mins
BSTAR
0.0000026213
Loading maneuver chart data...
Computing Atmospheric mass density...
Loading historical data...
Loading historical data...
Loading historical data...
Loading historical data...
Loading historical data...
Loading historical data...
Loading historical data...

Documentation

Showing up to 5 results
|